{"data":{"norad_id":64183,"epoch":"2026-09-20T23:14:39.939648Z","epoch_age_seconds":99859,"freshness":"FRESH","line1":"1 64183U 25113P   26263.96851782  .00012149  00000+0  40245-3 0  9993","line2":"2 64183  53.1581 262.6360 0001767  87.5328 272.5876 15.31713033 74988","mean_motion":15.31713033,"eccentricity":0.0001767,"inclination_deg":53.1581,"raan_deg":262.636,"arg_perigee_deg":87.5328,"mean_anomaly_deg":272.5876,"bstar":0.00040245,"rev_number":7498,"period_min":94.012388024121,"perigee_km":469.49095510612,"apogee_km":471.91133450649,"semimajor_km":6848.8381448063,"source":"CELESTRAK","updated_at":"2026-09-21T09:00:35.245493Z"}}